Regional Weather Roundup
Issued by NWS Jackson, KY

Home | Current Version | Previous Version | Text Only | Print | Product List | Glossary Off
Versions: 1 2 3 4 5 6 7 8 9 10 11 12 13 14 15 16 17 18 19 20 21 22 23 24 25 26 27

000
ASUS43 KJKL 220510
RWRJKL

EAST KENTUCKY HOURLY WEATHER ROUNDUP
NATIONAL WEATHER SERVICE JACKSON KY
1200 AM EST SUN JAN 22 2017

NOTE: "FAIR" INDICATES FEW OR NO CLOUDS BELOW 12,000 FEET WITH
NO SIGNIFICANT WEATHER AND/OR OBSTRUCTIONS TO VISIBILITY.

* THESE REPORTS ARE NOT UNDER NWS QUALITY CONTROL AND MAY NOT
  REPORT WEATHER SUCH AS PRECIPITATION AND FOG.

KYZ079-080-083-085-087-088-110-112-115-119-120-220600
...EASTERN KENTUCKY...

CITY           SKY/WX    TMP DP  RH WIND       PRES   REMARKS
JACKSON        CLOUDY    55  50  83 CALM      29.67R
LONDON         FOG       46  44  93 CALM      29.67S VSB 1/2
SOMERSET*      CLEAR     46  46 100 CALM      29.67F
MONTICELLO*    CLOUDY    48  47  96 NE8       29.67F
WILLIAMSBURG*    N/A     46  46 100 CALM      29.67F VSB 3/4
MIDDLESBORO*   PTCLDY    42  42 100 CALM      29.68S FOG
HARLAN APT*    CLOUDY    48  48 100 CALM      29.68S VSB 1/4
PIKE CO APT*     N/A     52  52 100 CALM      29.66S
MOREHEAD APT*  CLOUDY    54  50  87 CALM      29.69S
ASHLAND*       CLOUDY    48  48 100 CALM      29.65R VSB 1
$$

KYZ035-036-041-042-044-050-067-078-099-220600
...CENTRAL KENTUCKY...

CITY           SKY/WX    TMP DP  RH WIND       PRES   REMARKS
MT STERLING*   CLOUDY    48  46  93 CALM      29.69S
FLEMING/MASON* CLOUDY    53  49  86 CALM      29.68F
DANVILLE*      MOCLDY    48  46  93 CALM      29.67F
LEXINGTON      CLOUDY    55  49  80 SE6       29.67S
FRANKFORT      PTCLDY    51  47  86 S3        29.65S
LOUISVILLE     CLOUDY    56  47  71 SE3       29.64S
LEBANON*         N/A     55  48  76 E5        29.65F
GLASGOW*       CLOUDY    52  48  86 E3        29.61F
BOWLING GREEN  PTCLDY    53  48  83 NE5       29.60F
$$

KYZ091>093-OHZ055-061-077-WVZ005-015-034-035-042-220600
...SOUTHERN OHIO/WEST VIRGINIA...

CITY           SKY/WX    TMP DP  RH WIND       PRES   REMARKS
COVINGTON      MOCLDY    53  52  96 S5        29.66R
COLUMBUS       LGT RAIN  56  52  86 S3        29.68R
DAYTON         CLOUDY    53  50  89 S6        29.66S
WILMINGTON     LGT RAIN  53  52  96 S7        29.68R
HUNTINGTON     PTCLDY    54  51  90 CALM      29.66S
CHARLESTON     MOCLDY    52  50  93 CALM      29.66F
PINEVILLE*     PTCLDY    46  45  93 MISG      29.72S FOG
BECKLEY        CLOUDY    50  47  89 E5        29.68F
BLUEFIELD      FOG       48  47  96 E3        29.70F VSB 1/2
LOGAN CO APT*    N/A     54  50  87 CALM      29.66F
$$

VAZ002-007-008-TNZ017-027-036-066-071-220600
...SOUTHWEST VIRGINIA/EAST TENNESSEE...

CITY           SKY/WX    TMP DP  RH WIND       PRES   REMARKS
WISE*          MOCLDY    50  50 100 CALM      29.69S
JONESVILLE*    FOG       45  45 100 CALM      29.69S VSB<1/4
ABINGDON*      CLOUDY    53  50  88 E5        29.66F
BRISTOL        MOCLDY    49  47  93 CALM      29.65F
MORRISTOWN*    CLEAR     50  50 100 NW3       29.66R FOG
SEVIERVILLE*   CLOUDY    45  45 100 SW3       29.68R VSB 1/2
KNOXVILLE      CLOUDY    52  50  93 SE5       29.67R
LAFOLLETTE*    FOG       45  43  93 CALM      29.70S VSB 1/4
OAK RIDGE      PTCLDY    50  48  93 CALM      29.68S
CROSSVILLE     CLOUDY    47  45  93 SE3       29.66F
NASHVILLE      MOCLDY    55  49  80 E5        29.59F
$$

...KEY TO REMARKS...
VSB - VISIBILITY IN MILES
WCI - WIND CHILL INDEX
HX  - HEAT INDEX

$$




USA.gov is the U.S. government's official web portal to all federal, state and local government web resources and services.